Tracking 31027 objects as of 19-Jul-2025
HD Live streaming from Space Station
objects crossing your sky now

STARLINK-33559

Track STARLINK-33559 now!
10-day predictions
STARLINK-33559 is classified as:


NORAD ID: 62107
Int'l Code: 2024-220V
Perigee: 489.6 km
Apogee: 490.8 km
Inclination: 43.0 °
Period: 94.3 minutes
Semi major axis: 6861 km
RCS: Unknown
Launch date: November 25, 2024
Source: United States (US)
Launch site: AIR FORCE EASTERN TEST RANGE (AFETR)
Your satellite tracking list
STARLINK-3674
Track 1 satellite(s)




NASA's NSSDC Master Catalog

Two Line Element Set (TLE):
1 62107U 24220V   25199.69420509  .00016563  00000-0  60997-3 0  9992
2 62107  42.9969  87.1083 0000890 345.0569  15.0256 15.27583874 37406
Source of the keplerian elements: AFSPC